GW6130 Weather Reports


time (UTC)temp
F
wind
direction
speed
knots
gust
knots
rain 1hr
in
rain 24hr
in
rain mn
in
humidity
%
barometer
mb
20260506165252 77 71 0.9 0.9 0.00 0.00 0.00 84 1013.9
20260506164749 77 61 1.7 2.6 0.00 0.00 0.00 84 1013.9
20260506164246 78 83 0.0 0.9 0.00 0.00 0.00 83 1014.0
20260506163743 78 52 2.6 2.6 0.00 0.00 0.00 84 1013.8
20260506163237 78 53 0.9 0.9 0.00 0.00 0.00 84 1013.9
20260506162734 77 90 0.9 0.9 0.00 0.00 0.00 84 1013.9
20260506162232 77 82 0.0 0.9 0.00 0.00 0.00 86 1013.9
20260506161729 77 73 2.6 2.6 0.00 0.00 0.00 85 1013.8
20260506161226 77 101 1.7 2.6 0.00 0.00 0.00 85 1013.8
20260506160724 77 112 1.7 2.6 0.00 0.00 0.00 86 1013.9
20260506160220 77 86 1.7 1.7 0.00 0.00 0.00 87 1013.8
20260506155719 77 11 0.9 1.7 0.00 0.00 0.00 85 1013.9
20260506155215 77 32 0.9 1.7 0.00 0.00 0.00 86 1013.8
20260506153317 75 60 1.7 1.7 0.00 0.00 0.00 91 1013.4
20260506152814 75 113 0.0 0.0 0.00 0.00 0.00 92 1013.4
20260506152311 75 74 0.9 0.9 0.00 0.00 0.00 93 1013.5
20260506151810 75 65 0.0 0.0 0.00 0.00 0.00 93 1013.2
20260506151306 75 94 0.0 0.9 0.00 0.00 0.00 93 1013.1
20260506150803 74 58 0.0 0.0 0.00 0.00 0.00 93 1013.2
20260506150304 74 83 1.7 1.7 0.00 0.00 0.00 93 1013.2
20260506145757 74 86 1.7 1.7 0.00 0.00 0.00 93 1013.0
20260506145253 75 58 0.0 0.0 0.00 0.00 0.00 92 1012.8
20260506144751 75 51 0.0 0.0 0.00 0.00 0.00 92 1013.1
20260506144248 75 17 0.9 0.9 0.00 0.00 0.00 91 1013.1
20260506143745 75 40 0.0 0.0 0.00 0.00 0.00 91 1013.0
20260506143242 75 42 0.0 0.9 0.00 0.00 0.00 91 1013.1
20260506142741 75 37 0.9 1.7 0.00 0.00 0.00 91 1012.9
20260506142238 75 42 0.0 0.0 0.00 0.00 0.00 91 1013.1
20260506141736 74 49 0.0 0.0 0.00 0.00 0.00 92 1012.8
20260506141235 74 76 0.0 0.9 0.00 0.00 0.00 92 1012.6
20260506140732 74 68 0.0 0.0 0.00 0.00 0.00 92 1012.6
20260506140229 74 72 0.0 0.9 0.00 0.00 0.00 92 1012.4
20260506135725 74 9 0.9 0.9 0.00 0.00 0.00 92 1012.4
20260506135222 74 50 0.0 0.0 0.00 0.00 0.00 92 1012.4
20260506134719 74 76 0.9 0.9 0.00 0.00 0.00 92 1011.9
20260506134215 74 33 0.0 0.9 0.00 0.00 0.00 92 1011.8
20260506133712 74 117 0.9 0.9 0.00 0.00 0.00 92 1012.0
20260506133208 74 82 0.9 0.9 0.00 0.00 0.00 92 1011.8
20260506132706 74 97 0.9 1.7 0.00 0.00 0.00 92 1011.6
20260506132203 74 97 0.0 0.9 0.00 0.00 0.00 93 1011.7
20260506131700 74 92 0.9 0.9 0.00 0.00 0.00 93 1011.8
20260506131156 74 125 1.7 1.7 0.00 0.00 0.00 93 1011.5
20260506130653 74 97 0.0 0.9 0.00 0.00 0.00 93 1011.6
20260506130151 74 119 0.9 1.7 0.00 0.00 0.00 93 1011.5
20260506125649 74 76 0.0 0.9 0.00 0.00 0.00 93 1011.1
20260506125146 74 108 1.7 1.7 0.00 0.00 0.00 93 1011.2
20260506124644 74 34 0.0 0.9 0.00 0.00 0.00 94 1011.6
20260506124142 74 132 0.9 0.9 0.00 0.00 0.00 94 1011.2
20260506123639 74 172 0.9 0.9 0.00 0.00 0.00 93 1011.2
20260506123138 74 99 0.9 1.7 0.00 0.00 0.00 93 1011.2
20260506122634 74 4 0.0 0.9 0.00 0.00 0.00 93 1011.5
20260506122132 74 299 0.0 0.9 0.00 0.00 0.00 92 1011.3
20260506121629 74 124 0.9 1.7 0.00 0.00 0.00 92 1011.2
20260506121125 74 68 0.0 0.0 0.00 0.00 0.00 92 1011.3
20260506120624 74 85 0.0 0.0 0.00 0.00 0.00 92 1011.3
20260506120121 74 45 0.0 0.0 0.00 0.00 0.00 92 1011.2
20260506115619 74 80 0.0 0.0 0.00 0.00 0.00 92 1011.2
20260506115117 74 338 0.9 0.9 0.00 0.00 0.00 91 1011.2
20260506114614 74 92 0.0 0.0 0.00 0.00 0.00 91 1011.2
20260506114112 74 63 0.0 0.0 0.00 0.00 0.00 91 1011.2
20260506113610 74 39 0.0 0.9 0.00 0.00 0.00 91 1011.0
20260506113107 74 45 0.9 0.9 0.00 0.00 0.00 91 1011.2
20260506112603 74 31 0.9 0.9 0.00 0.00 0.00 91 1011.2
20260506112101 74 42 0.0 0.0 0.00 0.00 0.00 91 1011.2
20260506111558 74 50 0.0 0.0 0.00 0.00 0.00 91 1011.2
20260506111055 74 31 0.0 0.0 0.00 0.00 0.00 91 1011.0
20260506110553 74 329 0.0 0.9 0.00 0.00 0.00 91 1011.1
20260506110050 74 92 0.0 0.9 0.00 0.00 0.00 91 1011.3
20260506105546 74 38 0.0 0.9 0.00 0.00 0.00 91 1011.3
20260506105044 74 15 0.0 0.9 0.00 0.00 0.00 91 1011.1
20260506104541 74 70 0.9 1.7 0.00 0.00 0.00 91 1011.3
20260506104039 74 291 0.0 0.9 0.00 0.00 0.00 91 1011.1
20260506103536 74 286 0.9 1.7 0.00 0.00 0.00 91 1010.9
20260506103032 74 110 0.0 0.9 0.00 0.00 0.00 91 1010.9
20260506102531 74 303 0.9 0.9 0.00 0.00 0.00 91 1011.1
20260506102028 74 46 0.0 0.9 0.00 0.00 0.00 91 1011.1
20260506101525 74 55 0.0 0.0 0.00 0.00 0.00 91 1011.1
20260506101022 74 242 0.9 0.9 0.00 0.00 0.00 90 1011.2
20260506100520 74 66 0.0 0.9 0.00 0.00 0.00 90 1011.1
20260506100018 74 39 0.0 0.9 0.00 0.00 0.00 90 1011.0
20260506095517 74 56 2.6 4.3 0.00 0.00 0.00 90 1010.9
20260506095012 74 188 0.9 2.6 0.00 0.00 0.00 91 1010.8
20260506094510 74 73 0.9 0.9 0.00 0.00 0.00 91 1010.8
20260506094008 74 73 0.0 0.0 0.00 0.00 0.00 91 1011.0
20260506093506 74 56 0.9 0.9 0.00 0.00 0.00 91 1011.0
20260506093004 74 349 1.7 1.7 0.00 0.00 0.00 91 1011.0
20260506092501 74 339 0.9 0.9 0.00 0.00 0.00 91 1010.9
20260506091957 74 61 1.7 1.7 0.00 0.00 0.00 90 1010.7
20260506091456 74 109 0.9 1.7 0.00 0.00 0.00 90 1010.7
20260506090952 74 33 0.9 0.9 0.00 0.00 0.00 90 1010.8
20260506090450 74 3 0.0 0.9 0.00 0.00 0.00 90 1010.7
20260506085946 74 211 0.9 1.7 0.00 0.00 0.00 90 1010.8
20260506085443 74 215 0.9 0.9 0.00 0.00 0.00 90 1010.8
20260506084940 74 50 0.0 0.9 0.00 0.00 0.00 90 1010.7
20260506084437 74 271 2.6 4.3 0.00 0.00 0.00 90 1010.8
20260506083933 74 269 0.9 0.9 0.00 0.00 0.00 90 1011.0
20260506083430 74 245 2.6 4.3 0.00 0.00 0.00 90 1010.9
20260506082927 74 131 0.0 0.9 0.00 0.00 0.00 90 1010.8
20260506082425 74 136 6.1 8.7 0.00 0.00 0.00 91 1010.9
20260506081920 74 139 0.0 0.9 0.00 0.00 0.00 91 1011.0
20260506081419 74 115 0.9 1.7 0.00 0.00 0.00 90 1010.9
20260506080915 74 110 0.0 0.9 0.00 0.00 0.00 90 1011.0
20260506080412 74 130 0.9 0.9 0.00 0.00 0.00 90 1011.1
20260506073356 75 198 1.7 4.3 0.00 0.00 0.00 90 1011.1
20260506072853 75 174 2.6 2.6 0.00 0.00 0.00 90 1011.0
20260506072351 75 236 0.9 0.9 0.00 0.00 0.00 90 1011.2
20260506071848 75 33 0.9 0.9 0.00 0.00 0.00 90 1011.3
20260506071346 75 74 1.7 2.6 0.00 0.00 0.00 90 1011.5
20260506070843 75 94 0.0 0.9 0.00 0.00 0.00 90 1011.3
20260506070340 75 128 1.7 1.7 0.00 0.00 0.00 90 1011.7
20260506062317 75 118 0.0 0.9 0.00 0.00 0.00 90 1011.6
20260506061813 75 141 0.9 1.7 0.00 0.00 0.00 90 1011.7
20260506061310 75 333 2.6 2.6 0.00 0.00 0.00 90 1011.8
20260506060808 75 103 0.9 0.9 0.00 0.00 0.00 89 1011.8
20260506060306 75 317 0.9 0.9 0.00 0.00 0.00 89 1011.7
20260506051237 76 259 0.9 1.7 0.00 0.00 0.00 89 1011.6
20260506050735 76 79 1.7 1.7 0.00 0.00 0.00 89 1011.8
20260506050232 76 263 1.7 2.6 0.00 0.00 0.00 88 1011.6
20260506044723 76 298 0.9 0.9 0.00 0.00 0.00 88 1011.2
20260506044220 76 78 1.7 1.7 0.00 0.00 0.00 88 1011.3
20260506043718 76 123 0.9 1.7 0.00 0.00 0.00 88 1011.0
20260506043215 76 139 0.9 4.3 0.00 0.00 0.00 88 1011.3
20260506042714 76 118 0.9 0.9 0.00 0.00 0.00 88 1011.3
20260506042212 76 21 0.9 0.9 0.00 0.00 0.00 87 1011.5
20260506041710 77 116 0.9 0.9 0.00 0.00 0.00 87 1011.3
20260506041207 77 119 0.9 1.7 0.00 0.00 0.00 87 1011.3
20260506040704 77 52 2.6 4.3 0.00 0.00 0.00 87 1011.2
20260506040201 77 335 0.0 0.9 0.00 0.00 0.00 87 1011.1
20260506035658 77 0 0.9 0.9 0.00 0.00 0.00 87 1011.0
20260506035155 77 61 0.9 1.7 0.00 0.00 0.00 87 1011.0
20260506034651 77 117 1.7 1.7 0.00 0.00 0.00 87 1010.9
20260506034149 77 143 1.7 1.7 0.00 0.00 0.00 86 1010.9
20260506033646 77 133 0.9 1.7 0.00 0.00 0.00 86 1010.9
20260506033143 77 71 1.7 1.7 0.00 0.00 0.00 86 1011.1
20260506032640 77 140 1.7 4.3 0.00 0.00 0.00 86 1010.7
20260506032137 77 155 1.7 4.3 0.00 0.00 0.00 86 1010.6
20260506031633 77 107 2.6 2.6 0.00 0.00 0.00 86 1010.6
20260506031130 77 133 1.7 1.7 0.00 0.00 0.00 85 1010.5
20260506030629 78 100 0.9 0.9 0.00 0.00 0.00 85 1010.6
20260506030126 78 339 1.7 2.6 0.00 0.00 0.00 84 1010.4
20260506025623 78 263 0.9 1.7 0.00 0.00 0.00 84 1010.5
20260506025119 78 61 1.7 2.6 0.00 0.00 0.00 84 1010.4
20260506024617 78 99 0.0 0.9 0.00 0.00 0.00 83 1010.2
20260506024112 78 135 3.5 4.3 0.00 0.00 0.00 83 1010.0
20260506023608 79 46 0.0 0.9 0.00 0.00 0.00 82 1009.9
20260506023106 79 78 1.7 2.6 0.00 0.00 0.00 81 1009.9
20260506022604 79 204 0.9 1.7 0.00 0.00 0.00 81 1009.8
20260506022101 79 77 0.0 0.9 0.00 0.00 0.00 80 1009.8
20260506021559 79 100 0.9 0.9 0.00 0.00 0.00 79 1009.6
20260506021055 80 84 1.7 1.7 0.00 0.00 0.00 79 1009.5
20260506020553 80 126 0.9 1.7 0.00 0.00 0.00 78 1009.6
20260506020050 80 119 0.0 0.9 0.00 0.00 0.00 77 1009.4
20260506015548 80 148 2.6 2.6 0.00 0.00 0.00 77 1009.4
20260506015044 80 121 0.9 0.9 0.00 0.00 0.00 77 1009.3
20260506014542 80 78 0.9 1.7 0.00 0.00 0.00 77 1009.4
20260506014037 80 104 0.9 0.9 0.00 0.00 0.00 77 1009.2
20260506013536 81 71 0.0 0.0 0.00 0.00 0.00 76 1009.2
20260506013032 81 99 0.0 0.9 0.00 0.00 0.00 76 1009.2
20260506012528 81 90 0.9 0.9 0.00 0.00 0.00 75 1009.2
20260506012025 81 99 1.7 1.7 0.00 0.00 0.00 75 1009.3
20260506011523 81 67 0.0 0.9 0.00 0.00 0.00 75 1009.2
20260506011019 82 65 0.0 0.0 0.00 0.00 0.00 74 1009.3
20260506010519 82 109 1.7 1.7 0.00 0.00 0.00 73 1009.0
20260506010015 82 85 2.6 2.6 0.00 0.00 0.00 72 1009.0
20260506005512 83 144 0.0 1.7 0.00 0.00 0.00 72 1008.9
20260506005008 83 107 0.9 1.7 0.00 0.00 0.00 71 1008.9
20260506004506 83 116 2.6 2.6 0.00 0.00 0.00 70 1008.8
20260506004001 84 141 0.9 1.7 0.00 0.00 0.00 71 1008.9
20260506003458 84 73 0.9 0.9 0.00 0.00 0.00 69 1008.9
20260506002954 84 74 0.0 0.9 0.00 0.00 0.00 68 1008.9
20260506002451 84 98 0.0 0.0 0.00 0.00 0.00 69 1008.9
20260506001946 84 97 0.9 0.9 0.00 0.00 0.00 68 1008.6
20260506001443 84 57 0.0 0.9 0.00 0.00 0.00 68 1008.7
20260506000940 84 60 0.0 0.0 0.00 0.00 0.00 67 1008.7
20260506000438 84 59 0.0 0.0 0.00 0.00 0.00 69 1008.6
20260505235935 84 61 0.0 0.0 0.00 0.00 0.00 68 1008.7
20260505235433 84 44 0.9 1.7 0.00 0.00 0.00 67 1008.9
20260505234929 85 88 1.7 2.6 0.00 0.00 0.00 67 1008.9
20260505234427 85 88 0.0 0.0 0.00 0.00 0.00 67 1008.8
20260505233923 86 124 0.0 0.9 0.00 0.00 0.00 66 1008.7
20260505233421 86 17 1.7 1.7 0.00 0.00 0.00 64 1008.8
20260505232918 86 34 0.0 0.0 0.00 0.00 0.00 65 1008.7
20260505232416 86 136 1.7 1.7 0.00 0.00 0.00 64 1008.6
20260505231913 86 40 0.0 0.0 0.00 0.00 0.00 64 1008.6
20260505231410 86 21 0.0 0.9 0.00 0.00 0.00 64 1008.6
20260505230908 87 131 0.9 0.9 0.00 0.00 0.00 62 1008.4
20260505230406 86 50 0.0 0.0 0.00 0.00 0.00 64 1008.6
20260505225902 86 294 0.9 1.7 0.00 0.00 0.00 63 1008.2
20260505225400 87 78 0.0 0.9 0.00 0.00 0.00 62 1008.6
20260505224900 87 99 0.9 0.9 0.00 0.00 0.00 62 1008.4
20260505224358 87 190 1.7 2.6 0.00 0.00 0.00 62 1008.6
20260505223854 86 303 0.9 0.9 0.00 0.00 0.00 63 1008.4
20260505223351 87 81 0.9 1.7 0.00 0.00 0.00 62 1008.6
20260505222847 87 344 0.9 1.7 0.00 0.00 0.00 62 1008.4
20260505222343 86 252 1.7 1.7 0.00 0.00 0.00 63 1008.4
20260505221841 86 5 0.0 0.9 0.00 0.00 0.00 64 1008.6
20260505221337 86 134 1.7 2.6 0.00 0.00 0.00 63 1008.6
20260505220834 86 103 3.5 6.1 0.00 0.00 0.00 62 1008.7
20260505220331 87 131 1.7 1.7 0.00 0.00 0.00 61 1008.6
20260505215829 87 325 2.6 4.3 0.00 0.00 0.00 61 1008.4
20260505215327 87 241 1.7 1.7 0.00 0.00 0.00 61 1008.9
20260505214825 86 146 0.9 1.7 0.00 0.00 0.00 63 1008.9
20260505214322 87 34 0.0 0.9 0.00 0.00 0.00 63 1008.7
20260505213819 87 278 0.9 0.9 0.00 0.00 0.00 62 1009.0
20260505213317 86 144 0.0 0.9 0.00 0.00 0.00 63 1009.3
20260505212812 87 312 0.9 1.7 0.00 0.00 0.00 61 1009.0
20260505212310 87 279 1.7 2.6 0.00 0.00 0.00 63 1008.9
20260505211806 86 287 0.9 1.7 0.00 0.00 0.00 64 1009.3
20260505211304 85 46 1.7 2.6 0.00 0.00 0.00 65 1009.4
20260505210800 85 181 0.9 1.7 0.00 0.00 0.00 65 1009.6
20260505210257 85 181 0.9 0.9 0.00 0.00 0.00 65 1009.4
20260505205754 85 11 0.9 1.7 0.00 0.00 0.00 64 1009.7
20260505205253 86 212 3.5 4.3 0.00 0.00 0.00 62 1009.6
20260505204749 85 210 1.7 2.6 0.00 0.00 0.00 66 1009.6
20260505204247 85 18 0.0 0.0 0.00 0.00 0.00 66 1009.9
20260505203743 84 275 2.6 2.6 0.00 0.00 0.00 65 1009.8
20260505203240 85 296 2.6 2.6 0.00 0.00 0.00 64 1009.8
20260505202736 85 45 0.0 0.9 0.00 0.00 0.00 65 1010.1
20260505202232 85 345 2.6 5.2 0.00 0.00 0.00 64 1010.2
20260505201729 84 291 0.9 1.7 0.00 0.00 0.00 65 1010.2
20260505201227 84 230 0.9 1.7 0.00 0.00 0.00 66 1010.3
20260505200725 84 109 0.9 0.9 0.00 0.00 0.00 66 1010.0
20260505200222 85 118 1.7 1.7 0.00 0.00 0.00 65 1010.2
20260505195717 85 188 0.9 0.9 0.00 0.00 0.00 66 1010.3
20260505195215 85 240 2.6 4.3 0.00 0.00 0.00 64 1010.3
20260505194712 84 345 0.0 0.0 0.00 0.00 0.00 66 1010.3
20260505194208 83 54 0.9 0.9 0.00 0.00 0.00 68 1010.5
20260505193704 84 210 2.6 2.6 0.00 0.00 0.00 67 1010.5
20260505193202 84 136 0.9 2.6 0.00 0.00 0.00 67 1010.5
20260505192701 83 64 0.0 0.9 0.00 0.00 0.00 70 1010.8
20260505192157 83 215 2.6 4.3 0.00 0.00 0.00 67 1010.8
20260505191656 83 200 0.9 1.7 0.00 0.00 0.00 69 1010.8
20260505191154 82 66 0.9 0.9 0.00 0.00 0.00 70 1010.8
20260505190649 82 272 0.9 0.9 0.00 0.00 0.00 72 1010.7
20260505190149 82 244 2.6 4.3 0.00 0.00 0.00 70 1010.8
20260505185646 82 299 0.9 0.9 0.00 0.00 0.00 71 1011.2
20260505185142 81 89 0.9 1.7 0.00 0.00 0.00 72 1010.9
20260505184639 81 212 0.9 0.9 0.00 0.00 0.00 73 1011.6
20260505184136 80 56 0.9 0.9 0.00 0.00 0.00 73 1011.3
20260505183633 80 271 0.9 0.9 0.00 0.00 0.00 74 1011.5
20260505183131 80 165 2.6 4.3 0.00 0.00 0.00 74 1011.2
20260505182626 79 30 0.0 0.0 0.00 0.00 0.00 76 1011.2
20260505182123 79 247 1.7 2.6 0.00 0.00 0.00 76 1011.3
20260505181620 79 195 0.9 1.7 0.00 0.00 0.00 76 1011.8
20260505181118 79 297 0.9 1.7 0.00 0.00 0.00 76 1011.5
20260505180613 79 245 1.7 2.6 0.00 0.00 0.00 75 1011.8
20260505180111 79 140 0.9 0.9 0.00 0.00 0.00 75 1011.6
20260505175607 79 230 0.9 1.7 0.00 0.00 0.00 75 1011.6
20260505175103 79 25 0.0 0.9 0.00 0.00 0.00 77 1011.7
20260505174600 78 354 0.9 0.9 0.00 0.00 0.00 78 1011.7
20260505174056 79 263 0.9 1.7 0.00 0.00 0.00 76 1011.8
20260505173553 78 133 1.7 2.6 0.00 0.00 0.00 77 1011.8
20260505173050 77 165 1.7 1.7 0.00 0.00 0.00 79 1011.9
20260505172548 78 226 1.7 1.7 0.00 0.00 0.00 78 1011.7
20260505172044 78 188 1.7 1.7 0.00 0.00 0.00 79 1011.9
20260505171539 78 80 1.7 2.6 0.00 0.00 0.00 79 1011.8
20260505171036 77 93 0.9 1.7 0.00 0.00 0.00 80 1011.7
20260505170533 77 267 1.7 4.3 0.00 0.00 0.00 81 1011.9
20260505170029 77 264 1.7 1.7 0.00 0.00 0.00 81 1011.9